QPF
0.04 0.00 0.00 0.00 0.00 0.00 0.00 0.00 0.00 0.00 0.00 0.00 0.00 0.00 0.00 0.01 0.06 0.10 0.11 0.07 0.02 0.00 0.00 0.00 0.00 0.00 0.00 0.00 0.00 0.00 0.00 0.00 0.00 0.00 0.00 0.00 0.00 0.00 0.00 0.00 0.00 0.00 0.00 0.00
0.01 0.00 0.00 0.00 0.00 0.00 0.00 0.00 0.00 0.00 0.00 0.00 0.00 0.00 0.02 0.03 0.05 0.07 0.04 0.01 0.00 0.00 0.00 0.00 0.00 0.00 0.00 0.00 0.00 0.00 0.00 0.00 0.00 0.00 0.00 0.00 0.00 0.00 0.00 0.00 0.00 0.00 0.00 0.00
0.01 0.00 0.00 0.00 0.00 0.00 0.00 0.00 0.00 0.00 0.00 0.00 0.00 0.00 0.00 0.00 0.00 0.00 0.00 0.00 0.00 0.00 0.00 0.00 0.00 0.00 0.00 0.00 0.00 0.00 0.00 0.00 0.00 0.00 0.00 0.00 0.00 0.00 0.00 0.00 0.00 0.00 0.00 0.00
0.02 0.01 0.02 0.00 0.00 0.00 0.00 0.00 0.00 0.00 0.00 0.00 0.00 0.00 0.00 0.00 0.00 0.00 0.00 0.00 0.00 0.00 0.00 0.00 0.00 0.00 0.00 0.00 0.00 0.00 0.00 0.00 0.00 0.00 0.00 0.00 0.00 0.00 0.00 0.00 0.00 0.00 0.00 0.00
0.07 0.04 0.01 0.00 0.00 0.00 0.00 0.00 0.00 0.00 0.00 0.00 0.00 0.00 0.00 0.00 0.00 0.00 0.00 0.00 0.00 0.00 0.00 0.00 0.00 0.00 0.00 0.00 0.00 0.00 0.00 0.00 0.00 0.00 0.00 0.00 0.00 0.00 0.00 0.00 0.00 0.00 0.00 0.00
0.03 0.04 0.01 0.00 0.00 0.00 0.00 0.00 0.00 0.00 0.00 0.00 0.00 0.00 0.00 0.00 0.00 0.00 0.00 0.00 0.00 0.00 0.00 0.00 0.00 0.00 0.00 0.00 0.00 0.00 0.00 0.00 0.00 0.00 0.00 0.00 0.00 0.00 0.00 0.00 0.00 0.00 0.00 0.00
0.02 0.05 0.03 0.00 0.00 0.00 0.00 0.00 0.00 0.00 0.00 0.00 0.00 0.00 0.00 0.00 0.00 0.00 0.00 0.00 0.00 0.00 0.00 0.00 0.00 0.00 0.00 0.00 0.00 0.00 0.00 0.00 0.00 0.00 0.00 0.00 0.00 0.00 0.00 0.00 0.00 0.00 0.00 0.00
0.06 0.11 0.04 0.00 0.00 0.00 0.00 0.00 0.00 0.00 0.00 0.00 0.00 0.00 0.00 0.00 0.00 0.00 0.00 0.00 0.00 0.00 0.00 0.00 0.00 0.00 0.00 0.00 0.00 0.00 0.00 0.00 0.00 0.00 0.00 0.00 0.00 0.00 0.00 0.00 0.00 0.00 0.00 0.00
0.07 0.03 0.00 0.00 0.00 0.00 0.00 0.00 0.00 0.00 0.00 0.00 0.00 0.00 0.00 0.00 0.00 0.00 0.00 0.00 0.00 0.00 0.00 0.00 0.02 0.04 0.06 0.04 0.01 0.00 0.01 0.01 0.01 0.01 0.01 0.00 0.00 0.00 0.00 0.00 0.00 0.00 0.00 0.00
0.09 0.06 0.00 0.00 0.01 0.00 0.00 0.00 0.00 0.00 0.00 0.00 0.00 0.00 0.00 0.00 0.00 0.00 0.00 0.00 0.00 0.01 0.01 0.01 0.01 0.01 0.01 0.01 0.06 0.07 0.07 0.05 0.03 0.04 0.03 0.01 0.00 0.00 0.00 0.00 0.00 0.00 0.00 0.00
0.10 0.03 0.01 0.00 0.00 0.00 0.00 0.00 0.00 0.00 0.00 0.00 0.00 0.00 0.00 0.00 0.00 0.00 0.00 0.00 0.00 0.00 0.00 0.00 0.00 0.00 0.00 0.01 0.04 0.05 0.04 0.03 0.03 0.03 0.03 0.02 0.00 0.00 0.00 0.00 0.00 0.00 0.00 0.00
0.03 0.00 0.02 0.01 0.00 0.00 0.00 0.00 0.00 0.00 0.00 0.00 0.00 0.00 0.00 0.00 0.00 0.00 0.00 0.00 0.00 0.00 0.00 0.00 0.00 0.00 0.00 0.00 0.00 0.00 0.01 0.02 0.04 0.07 0.07 0.06 0.04 0.02 0.01 0.00 0.00 0.00 0.00 0.00
0.00 0.00 0.00 0.00 0.00 0.00 0.00 0.00 0.00 0.00 0.00 0.00 0.00 0.00 0.00 0.00 0.00 0.00 0.00 0.00 0.00 0.00 0.00 0.00 0.00 0.00 0.00 0.00 0.00 0.01 0.02 0.05 0.10 0.16 0.16 0.15 0.12 0.10 0.08 0.04 0.01 0.00 0.00 0.00
0.00 0.00 0.00 0.00 0.00 0.00 0.00 0.00 0.00 0.00 0.00 0.00 0.00 0.00 0.00 0.00 0.00 0.00 0.00 0.00 0.00 0.00 0.00 0.00 0.00 0.00 0.00 0.00 0.00 0.00 0.01 0.04 0.09 0.13 0.16 0.17 0.18 0.15 0.11 0.07 0.04 0.04 0.01 0.00
0.00 0.00 0.00 0.00 0.00 0.00 0.00 0.00 0.00 0.00 0.00 0.00 0.00 0.00 0.00 0.00 0.00 0.00 0.00 0.00 0.00 0.00 0.00 0.00 0.00 0.00 0.00 0.00 0.00 0.00 0.00 0.02 0.05 0.07 0.08 0.10 0.10 0.09 0.07 0.07 0.06 0.06 0.01 0.00
0.00 0.00 0.00 0.00 0.00 0.00 0.00 0.00 0.00 0.00 0.00 0.00 0.00 0.00 0.00 0.00 0.00 0.00 0.00 0.00 0.00 0.00 0.00 0.00 0.01 0.00 0.00 0.00 0.00 0.00 0.00 0.00 0.00 0.01 0.02 0.04 0.06 0.07 0.07 0.09 0.07 0.05 0.04 0.01
0.00 0.00 0.00 0.00 0.00 0.00 0.00 0.00 0.00 0.00 0.00 0.00 0.00 0.00 0.00 0.00 0.00 0.00 0.00 0.00 0.00 0.00 0.00 0.00 0.00 0.00 0.00 0.00 0.00 0.01 0.00 0.00 0.00 0.00 0.01 0.02 0.03 0.03 0.04 0.05 0.04 0.03 0.01 0.00
0.00 0.00 0.00 0.00 0.00 0.00 0.00 0.00 0.00 0.00 0.00 0.00 0.00 0.00 0.00 0.00 0.00 0.00 0.00 0.00 0.00 0.00 0.00 0.00 0.00 0.00 0.00 0.00 0.01 0.01 0.00 0.00 0.00 0.00 0.00 0.00 0.00 0.00 0.00 0.00 0.00 0.00 0.00 0.00
0.00 0.00 0.00 0.00 0.00 0.00 0.00 0.00 0.00 0.00 0.00 0.00 0.00 0.00 0.00 0.00 0.00 0.00 0.00 0.00 0.00 0.00 0.00 0.00 0.00 0.00 0.00 0.00 0.00 0.00 0.00 0.00 0.00 0.00 0.00 0.00 0.00 0.00 0.00 0.00 0.00 0.00 0.00 0.00
0.00 0.00 0.00 0.00 0.00 0.00 0.00 0.00 0.00 0.00 0.00 0.00 0.00 0.00 0.00 0.00 0.00 0.00 0.00 0.00 0.00 0.00 0.00 0.00 0.00 0.00 0.00 0.00 0.00 0.00 0.00 0.01 0.01 0.00 0.00 0.00 0.00 0.00 0.00 0.00 0.00 0.00 0.00 0.00
0.00 0.00 0.00 0.00 0.00 0.00 0.00 0.00 0.00 0.00 0.00 0.00 0.00 0.00 0.00 0.00 0.00 0.00 0.00 0.00 0.00 0.00 0.00 0.00 0.00 0.00 0.00 0.00 0.00 0.00 0.00 0.01 0.01 0.01 0.01 0.01 0.01 0.01 0.00 0.00 0.00 0.00 0.00 0.00
0.00 0.00 0.00 0.00 0.00 0.00 0.00 0.00 0.00 0.00 0.00 0.00 0.00 0.00 0.00 0.00 0.00 0.00 0.00 0.00 0.00 0.00 0.00 0.00 0.00 0.00 0.00 0.00 0.00 0.00 0.00 0.01 0.01 0.01 0.01 0.01 0.01 0.01 0.00 0.00 0.00 0.00 0.00 0.00
0.00 0.00 0.00 0.00 0.00 0.00 0.00 0.00 0.00 0.00 0.00 0.00 0.00 0.00 0.00 0.00 0.00 0.00 0.00 0.00 0.00 0.00 0.00 0.00 0.00 0.00 0.00 0.00 0.00 0.00 0.00 0.00 0.00 0.00 0.00 0.01 0.01 0.01 0.00 0.00 0.00 0.00 0.00 0.00
0.00 0.00 0.00 0.00 0.00 0.00 0.00 0.00 0.00 0.00 0.00 0.00 0.00 0.00 0.00 0.00 0.00 0.00 0.00 0.00 0.00 0.00 0.00 0.00 0.00 0.00 0.00 0.00 0.00 0.00 0.00 0.00 0.00 0.01 0.01 0.01 0.01 0.00 0.01 0.01 0.01 0.00 0.00 0.00
0.00 0.00 0.00 0.00 0.00 0.00 0.00 0.00 0.00 0.00 0.00 0.00 0.00 0.00 0.00 0.00 0.00 0.00 0.00 0.00 0.00 0.00 0.00 0.00 0.00 0.00 0.00 0.00 0.00 0.00 0.00 0.01 0.01 0.01 0.01 0.01 0.00 0.00 0.01 0.01 0.01 0.02 0.02 0.02
0.00 0.00 0.00 0.00 0.00 0.00 0.00 0.00 0.00 0.00 0.00 0.00 0.00 0.00 0.00 0.00 0.00 0.00 0.00 0.00 0.00 0.00 0.00 0.00 0.00 0.00 0.00 0.00 0.00 0.00 0.01 0.00 0.00 0.00 0.01 0.00 0.00 0.01 0.01 0.00 0.00 0.00 0.01 0.01
0.00 0.00 0.00 0.00 0.00 0.00 0.00 0.00 0.00 0.00 0.00 0.00 0.00 0.00 0.00 0.00 0.00 0.00 0.00 0.00 0.00 0.00 0.00 0.00 0.00 0.00 0.00 0.00 0.00 0.00 0.00 0.00 0.00 0.00 0.00 0.01 0.00 0.00 0.00 0.00 0.00 0.00 0.00 0.00
MSLP
1017.65 1016.70 1016.65 1016.46 1016.33 1016.50 1016.73 1016.30 1016.51 1014.36 1014.01 1012.58 1012.84 1012.96 1012.62 1012.71 1013.46 1013.97 1014.60 1015.25 1015.47 1015.90 1016.07 1016.41 1016.83 1017.22 1017.41 1017.48 1017.65 1017.92 1018.31 1018.50 1018.38 1018.05 1017.75 1017.47 1017.30 1016.97 1016.68 1016.45 1016.02 1015.53 1015.43 1015.21
1018.31 1017.62 1017.00 1016.27 1015.83 1015.82 1015.68 1015.48 1015.24 1014.38 1013.56 1013.42 1013.06 1012.92 1012.91 1012.94 1013.22 1013.87 1014.11 1014.42 1015.24 1015.46 1015.72 1016.18 1016.60 1016.94 1017.13 1017.21 1017.23 1017.54 1017.72 1017.60 1017.38 1017.24 1016.99 1016.79 1016.60 1016.35 1016.05 1016.02 1015.71 1015.23 1015.14 1014.87
1017.14 1017.04 1016.76 1015.50 1014.88 1014.35 1014.04 1014.05 1014.21 1014.55 1014.01 1013.95 1013.90 1013.98 1014.02 1013.91 1013.86 1014.14 1014.57 1014.86 1015.22 1015.52 1015.81 1016.14 1016.42 1016.42 1016.55 1016.33 1016.38 1016.77 1016.87 1016.71 1016.64 1016.51 1016.43 1016.26 1016.01 1015.82 1015.71 1015.60 1015.14 1014.84 1014.71 1014.32
1017.45 1016.97 1015.60 1013.10 1012.78 1012.73 1013.26 1013.63 1014.00 1014.53 1014.78 1014.88 1014.90 1015.00 1014.96 1014.92 1014.94 1015.09 1015.38 1015.50 1015.62 1015.71 1015.80 1015.88 1015.65 1015.61 1015.44 1015.56 1015.71 1015.86 1015.93 1015.77 1015.62 1015.60 1015.71 1015.74 1015.69 1015.42 1015.29 1014.94 1014.63 1014.31 1014.16 1013.87
1017.31 1016.36 1014.33 1013.40 1012.74 1012.92 1013.49 1014.00 1014.62 1014.99 1015.45 1015.59 1015.48 1015.49 1015.57 1015.53 1015.56 1015.61 1015.62 1015.58 1015.48 1015.36 1015.29 1015.10 1015.14 1014.84 1014.86 1015.02 1015.02 1015.17 1014.88 1014.65 1014.47 1014.51 1014.51 1014.76 1014.95 1014.86 1014.57 1014.23 1013.98 1013.83 1013.73 1013.59
1017.08 1016.17 1014.59 1013.10 1012.93 1013.22 1013.67 1014.53 1015.04 1015.56 1015.86 1015.94 1016.34 1016.82 1016.68 1016.10 1016.12 1016.21 1016.06 1015.99 1015.77 1015.41 1015.09 1014.99 1014.54 1014.29 1014.53 1014.57 1014.65 1014.51 1013.95 1013.43 1013.10 1013.27 1013.36 1013.53 1013.65 1013.86 1013.78 1013.36 1013.19 1013.22 1013.29 1013.32
1016.65 1015.57 1014.20 1013.46 1013.45 1013.89 1015.19 1015.50 1015.53 1015.99 1016.12 1016.47 1017.06 1017.18 1017.13 1017.18 1017.20 1017.36 1017.49 1017.48 1017.15 1016.49 1016.37 1016.25 1015.98 1015.51 1015.24 1014.77 1014.40 1013.86 1013.31 1012.69 1012.33 1011.99 1012.04 1012.34 1012.57 1012.61 1012.87 1012.92 1012.84 1012.74 1012.87 1012.92
1016.32 1015.73 1014.90 1013.96 1014.40 1014.97 1015.28 1015.27 1015.72 1016.17 1016.54 1016.86 1017.33 1017.65 1018.00 1018.21 1018.37 1018.47 1018.45 1018.21 1017.97 1017.70 1017.55 1017.31 1016.81 1016.48 1015.97 1015.39 1014.58 1013.50 1013.00 1012.55 1011.93 1011.13 1010.88 1011.15 1011.74 1011.81 1012.12 1012.32 1012.30 1012.09 1012.12 1012.44
1015.75 1015.03 1014.80 1015.14 1015.30 1015.46 1015.63 1016.18 1016.63 1017.03 1017.41 1017.68 1018.30 1018.84 1019.12 1019.36 1019.42 1019.40 1019.40 1019.22 1018.87 1018.48 1017.92 1017.62 1017.21 1017.12 1016.72 1015.97 1014.98 1014.09 1013.23 1012.43 1011.73 1011.20 1011.10 1010.33 1010.60 1011.07 1011.58 1011.68 1011.93 1011.67 1011.37 1011.66
1015.53 1015.23 1015.40 1015.81 1016.17 1016.44 1016.64 1017.32 1017.93 1018.33 1018.68 1019.06 1019.60 1019.80 1020.05 1020.33 1020.55 1020.46 1020.19 1019.82 1019.36 1018.90 1018.44 1018.04 1017.78 1017.40 1016.81 1016.04 1015.33 1014.55 1013.50 1012.16 1011.17 1010.53 1010.25 1010.28 1009.86 1010.25 1010.68 1010.91 1011.30 1011.29 1010.99 1010.73
1015.46 1015.90 1016.20 1016.74 1016.84 1017.45 1018.06 1018.66 1019.11 1019.61 1019.98 1020.32 1020.52 1020.83 1020.96 1021.17 1021.07 1020.92 1020.63 1020.33 1020.12 1019.86 1019.32 1018.78 1018.32 1017.90 1017.32 1016.73 1015.84 1014.76 1013.72 1012.52 1011.34 1010.45 1009.54 1009.45 1009.63 1009.64 1009.97 1009.95 1009.88 1010.40 1010.41 1010.31
1014.83 1015.18 1016.44 1017.68 1018.12 1018.67 1019.05 1019.71 1020.14 1020.45 1020.86 1021.36 1021.67 1022.02 1022.00 1022.01 1021.91 1021.56 1021.45 1021.08 1020.80 1020.64 1020.19 1019.47 1018.89 1018.45 1017.93 1017.27 1016.46 1015.47 1014.30 1012.98 1011.81 1010.76 1009.86 1009.38 1009.57 1009.89 1010.03 1009.73 1009.39 1009.47 1009.41 1009.68
1014.75 1015.63 1016.93 1018.32 1019.10 1019.63 1019.77 1020.50 1021.05 1021.33 1021.78 1022.30 1022.65 1022.77 1022.87 1022.79 1022.52 1022.22 1022.05 1021.92 1021.69 1021.23 1020.56 1019.93 1019.38 1018.83 1018.33 1017.68 1016.93 1016.12 1015.19 1013.95 1012.49 1011.31 1010.56 1009.99 1009.67 1009.57 1009.34 1009.44 1009.24 1009.12 1008.93 1009.05
1015.33 1016.48 1018.43 1018.80 1019.61 1020.28 1020.66 1021.19 1021.61 1022.19 1022.79 1023.07 1023.23 1023.23 1023.07 1023.07 1023.06 1022.89 1022.57 1022.36 1021.89 1021.41 1020.80 1020.23 1019.60 1019.15 1018.64 1018.02 1017.27 1016.50 1015.66 1014.78 1013.87 1012.96 1012.18 1011.24 1010.57 1009.78 1009.34 1009.28 1009.12 1008.85 1008.63 1008.73
1016.16 1016.40 1017.48 1019.11 1020.15 1020.82 1021.30 1021.77 1022.34 1022.86 1023.23 1023.38 1023.41 1023.27 1023.44 1023.62 1023.32 1023.09 1022.90 1022.50 1021.96 1021.51 1021.08 1020.57 1020.02 1019.64 1019.11 1018.47 1017.68 1016.90 1016.24 1015.45 1014.68 1013.78 1012.79 1011.98 1011.07 1010.32 1009.86 1009.22 1008.91 1008.76 1008.75 1008.63
1017.17 1017.84 1018.75 1019.55 1020.49 1021.21 1021.63 1022.17 1022.61 1023.14 1023.25 1023.16 1023.63 1023.87 1023.78 1023.64 1023.53 1023.35 1023.01 1022.45 1022.04 1021.67 1021.23 1020.88 1020.56 1020.16 1019.57 1018.79 1017.93 1017.11 1016.54 1015.92 1015.20 1014.36 1013.44 1012.60 1011.73 1010.93 1010.34 1009.91 1009.69 1009.36 1009.03 1008.94
1017.19 1018.63 1019.33 1020.09 1020.75 1021.34 1021.82 1022.26 1022.61 1022.77 1023.19 1023.79 1024.03 1023.82 1023.76 1024.03 1023.85 1023.33 1022.99 1022.75 1022.37 1021.91 1021.64 1021.37 1020.86 1020.35 1019.74 1019.00 1018.27 1017.37 1016.84 1016.18 1015.48 1014.53 1013.67 1012.92 1012.12 1011.69 1011.24 1010.89 1010.51 1010.11 1009.81 1009.60
1016.60 1017.60 1018.61 1019.46 1020.46 1021.25 1021.93 1022.32 1022.51 1023.18 1023.71 1023.84 1023.82 1024.12 1024.36 1024.45 1024.06 1023.79 1023.53 1022.95 1022.52 1022.23 1022.00 1021.79 1021.23 1020.53 1019.88 1019.27 1018.59 1017.76 1016.95 1016.20 1015.42 1014.58 1013.73 1012.93 1012.27 1011.68 1011.22 1010.82 1010.48 1010.17 1009.73 1009.52
1017.45 1018.12 1019.07 1019.83 1020.64 1021.38 1021.71 1022.27 1022.99 1023.42 1023.65 1023.87 1024.40 1024.80 1024.82 1024.68 1024.65 1024.33 1023.79 1023.34 1023.01 1022.54 1022.25 1021.81 1021.23 1020.58 1019.97 1019.58 1018.81 1018.13 1017.10 1016.08 1015.18 1014.40 1013.68 1012.95 1012.27 1011.73 1011.24 1010.89 1010.52 1010.13 1009.74 1009.40
1018.07 1018.75 1019.55 1020.44 1020.93 1021.25 1022.03 1022.72 1023.17 1023.45 1023.96 1024.42 1025.00 1025.32 1025.29 1025.41 1024.93 1024.41 1023.91 1023.80 1023.37 1022.99 1022.35 1021.78 1021.14 1020.53 1019.99 1019.44 1018.87 1018.01 1017.00 1016.07 1015.08 1014.18 1013.41 1012.72 1012.06 1011.49 1011.12 1010.67 1010.25 1009.85 1009.50 1009.18
1018.35 1019.21 1020.01 1020.57 1020.97 1021.73 1022.43 1022.73 1023.40 1024.22 1024.75 1024.92 1025.34 1025.59 1025.84 1025.29 1024.65 1024.30 1024.19 1023.74 1023.21 1022.78 1022.33 1021.76 1021.09 1020.46 1019.98 1019.37 1018.68 1017.80 1017.11 1016.23 1015.36 1014.18 1013.62 1012.96 1012.18 1011.37 1010.84 1010.48 1010.11 1009.71 1009.27 1008.89
1018.60 1019.39 1020.05 1020.73 1021.36 1022.05 1022.61 1023.02 1023.81 1024.46 1024.88 1025.16 1025.25 1025.42 1025.52 1025.07 1024.48 1024.23 1024.16 1023.91 1023.25 1022.84 1022.38 1021.72 1021.09 1020.62 1020.06 1019.36 1018.51 1017.79 1016.97 1016.26 1015.51 1014.61 1013.73 1012.99 1012.31 1011.55 1011.12 1010.47 1009.79 1009.30 1008.87 1008.46
1018.70 1019.35 1020.24 1020.94 1021.39 1022.07 1022.79 1023.43 1023.95 1024.28 1024.77 1024.98 1025.24 1025.14 1024.93 1024.67 1024.41 1024.17 1023.90 1023.55 1023.32 1022.84 1022.41 1021.77 1021.20 1020.60 1019.90 1019.17 1018.39 1017.77 1017.06 1016.27 1015.43 1014.53 1013.66 1012.82 1012.09 1011.36 1010.95 1010.23 1009.51 1008.92 1008.39 1007.98
1018.66 1019.69 1020.33 1020.79 1021.31 1022.19 1023.04 1023.61 1023.77 1024.06 1024.25 1024.62 1024.69 1024.91 1024.63 1024.48 1024.42 1024.22 1024.12 1023.80 1023.36 1022.94 1022.44 1021.83 1021.19 1020.54 1019.92 1019.10 1018.34 1017.66 1016.87 1016.02 1015.36 1014.60 1013.79 1012.75 1011.86 1011.37 1010.88 1010.21 1009.45 1008.45 1007.76 1007.33
1019.03 1019.69 1020.19 1020.71 1021.49 1022.32 1022.94 1023.34 1023.74 1024.01 1024.24 1024.52 1024.66 1024.42 1024.41 1024.46 1024.64 1024.40 1024.15 1023.84 1023.42 1023.01 1022.46 1021.77 1021.17 1020.56 1019.89 1019.11 1018.37 1017.57 1016.64 1015.83 1015.25 1014.60 1013.94 1013.16 1012.54 1011.60 1010.85 1010.04 1009.74 1009.22 1008.64 1007.84
1019.10 1019.63 1020.19 1020.80 1021.61 1022.44 1023.06 1023.47 1023.95 1024.11 1024.29 1024.72 1024.71 1024.73 1024.51 1024.54 1024.64 1024.63 1024.40 1024.12 1023.74 1023.25 1022.68 1022.04 1021.40 1020.75 1020.00 1019.21 1018.43 1017.49 1016.55 1015.78 1015.15 1014.55 1013.92 1013.13 1012.31 1011.52 1010.73 1010.29 1009.65 1009.11 1008.53 1007.92
1019.27 1019.91 1020.59 1021.45 1022.16 1022.75 1023.26 1023.65 1024.00 1024.27 1024.39 1024.69 1024.92 1024.82 1024.75 1024.78 1024.85 1024.88 1024.72 1024.47 1024.03 1023.51 1022.98 1022.37 1021.69 1020.96 1020.21 1019.40 1018.41 1017.51 1016.62 1015.81 1015.15 1014.43 1013.68 1012.95 1012.24 1011.46 1010.70 1010.00 1009.32 1008.72 1008.11 1007.49
Thickness
5564 5577 5575 5574 5572 5568 5560 5569 5551 5575 5567 5584 5575 5566 5568 5564 5553 5546 5537 5528 5523 5513 5507 5500 5491 5483 5474 5466 5458 5446 5435 5427 5422 5420 5417 5414 5409 5408 5407 5403 5402 5403 5401 5400
5550 5552 5559 5563 5563 5564 5566 5565 5560 5563 5562 5566 5561 5562 5557 5553 5548 5540 5535 5529 5512 5508 5501 5489 5478 5467 5458 5449 5441 5432 5423 5418 5414 5410 5407 5403 5400 5399 5397 5392 5391 5391 5390 5390
5567 5557 5554 5558 5558 5565 5573 5572 5563 5549 5556 5548 5547 5542 5532 5533 5532 5526 5517 5509 5501 5493 5483 5472 5461 5453 5445 5439 5431 5420 5412 5407 5403 5398 5394 5391 5389 5386 5383 5380 5381 5380 5380 5382
5553 5547 5551 5582 5581 5580 5568 5565 5552 5543 5533 5525 5521 5517 5513 5509 5505 5497 5491 5486 5479 5471 5463 5455 5447 5440 5435 5426 5418 5409 5403 5397 5391 5386 5380 5376 5373 5372 5369 5369 5370 5371 5371 5373
5543 5548 5562 5569 5574 5560 5549 5545 5527 5526 5519 5513 5509 5505 5499 5495 5492 5486 5478 5470 5463 5456 5449 5445 5436 5432 5424 5415 5407 5399 5397 5388 5381 5374 5370 5364 5360 5358 5358 5359 5359 5359 5358 5359
5527 5538 5543 5558 5553 5551 5546 5511 5515 5502 5504 5501 5485 5460 5466 5477 5471 5462 5455 5449 5445 5442 5436 5427 5424 5416 5406 5400 5389 5383 5381 5379 5376 5367 5358 5352 5349 5347 5345 5347 5348 5346 5345 5344
5537 5540 5544 5545 5542 5535 5504 5519 5501 5496 5491 5483 5466 5460 5463 5454 5447 5438 5429 5423 5418 5416 5409 5402 5395 5391 5384 5379 5373 5369 5365 5362 5360 5357 5349 5341 5336 5334 5331 5331 5331 5331 5332 5331
5518 5525 5535 5532 5525 5513 5504 5504 5500 5491 5482 5475 5462 5451 5441 5432 5424 5417 5409 5403 5397 5390 5382 5375 5368 5361 5355 5349 5345 5344 5341 5339 5338 5339 5336 5330 5323 5321 5316 5316 5316 5318 5322 5320
5518 5521 5516 5506 5499 5498 5494 5487 5483 5471 5459 5452 5440 5430 5421 5412 5404 5396 5387 5378 5372 5366 5361 5351 5343 5331 5321 5317 5316 5316 5316 5316 5317 5317 5315 5319 5315 5308 5302 5304 5303 5307 5312 5311
5508 5509 5502 5496 5490 5485 5476 5463 5453 5445 5437 5429 5417 5412 5402 5391 5378 5371 5365 5357 5351 5344 5336 5329 5318 5309 5301 5297 5292 5289 5291 5297 5300 5302 5304 5303 5304 5298 5294 5293 5291 5294 5298 5303
5493 5489 5488 5480 5476 5463 5454 5444 5435 5426 5417 5409 5401 5390 5381 5371 5362 5354 5347 5338 5328 5318 5311 5303 5296 5286 5276 5268 5265 5266 5265 5269 5278 5283 5293 5292 5288 5287 5283 5284 5285 5281 5284 5287
5502 5496 5475 5459 5453 5445 5437 5426 5419 5411 5401 5388 5378 5367 5360 5350 5340 5334 5324 5316 5306 5295 5285 5277 5268 5257 5249 5242 5238 5235 5235 5239 5246 5256 5264 5271 5268 5266 5265 5269 5271 5273 5276 5274
5492 5482 5460 5445 5435 5428 5421 5410 5401 5392 5382 5371 5360 5349 5338 5328 5322 5314 5304 5293 5281 5270 5262 5252 5243 5235 5227 5221 5213 5207 5204 5208 5218 5228 5236 5241 5245 5248 5252 5253 5255 5258 5262 5264
5473 5457 5436 5435 5423 5415 5407 5398 5388 5376 5364 5353 5342 5334 5326 5316 5306 5296 5285 5272 5262 5251 5242 5233 5225 5215 5207 5199 5192 5187 5186 5187 5190 5197 5204 5214 5220 5226 5233 5237 5239 5243 5246 5249
5456 5452 5440 5423 5410 5401 5393 5383 5371 5360 5349 5340 5332 5324 5313 5300 5290 5280 5268 5258 5248 5236 5225 5214 5205 5197 5188 5180 5174 5172 5170 5170 5171 5175 5182 5189 5197 5205 5211 5218 5223 5225 5226 5231
5436 5430 5420 5410 5398 5387 5380 5370 5359 5348 5340 5333 5320 5310 5300 5289 5277 5265 5256 5248 5235 5221 5211 5198 5187 5178 5171 5166 5162 5159 5155 5153 5153 5156 5161 5166 5172 5179 5186 5191 5196 5201 5205 5211
5427 5414 5408 5399 5389 5379 5371 5360 5351 5344 5333 5321 5309 5301 5291 5276 5266 5257 5245 5233 5220 5206 5193 5181 5172 5165 5157 5150 5146 5145 5141 5140 5139 5142 5144 5147 5152 5153 5157 5163 5167 5172 5177 5184
5430 5421 5409 5398 5385 5373 5362 5355 5347 5334 5322 5311 5301 5289 5273 5260 5255 5245 5231 5221 5207 5193 5179 5166 5158 5152 5144 5137 5132 5130 5128 5126 5126 5126 5129 5131 5133 5136 5138 5141 5145 5148 5156 5162
5414 5406 5397 5388 5376 5366 5359 5348 5335 5325 5310 5300 5286 5271 5261 5250 5241 5229 5218 5204 5193 5185 5171 5159 5151 5143 5134 5125 5120 5114 5112 5112 5112 5112 5112 5113 5114 5116 5118 5119 5122 5126 5131 5136
5403 5396 5386 5376 5369 5362 5348 5337 5325 5314 5301 5287 5269 5257 5247 5234 5221 5212 5205 5193 5183 5171 5160 5151 5143 5135 5126 5117 5109 5104 5100 5097 5097 5096 5095 5096 5097 5098 5098 5099 5103 5109 5109 5114
5396 5386 5377 5371 5363 5351 5336 5325 5309 5294 5279 5267 5261 5247 5233 5224 5216 5205 5200 5190 5178 5165 5153 5143 5136 5127 5118 5110 5102 5095 5086 5081 5078 5079 5076 5075 5077 5080 5081 5082 5084 5089 5095 5099
5387 5379 5366 5354 5345 5333 5322 5315 5300 5282 5272 5258 5246 5235 5225 5224 5212 5203 5190 5182 5171 5158 5146 5137 5129 5119 5110 5101 5093 5084 5076 5069 5064 5061 5060 5059 5060 5062 5062 5065 5070 5074 5079 5084
5381 5372 5360 5345 5339 5330 5315 5303 5286 5278 5264 5250 5239 5233 5229 5221 5212 5201 5188 5177 5165 5153 5141 5131 5122 5113 5105 5096 5088 5078 5068 5061 5055 5052 5051 5050 5050 5052 5052 5055 5059 5063 5068 5071
5373 5362 5354 5345 5335 5320 5309 5295 5288 5276 5260 5251 5238 5229 5226 5213 5199 5193 5181 5169 5158 5146 5135 5125 5117 5109 5100 5094 5085 5075 5066 5058 5050 5045 5042 5042 5044 5042 5042 5044 5049 5057 5062 5063
5365 5356 5348 5337 5326 5313 5303 5291 5280 5269 5259 5249 5239 5229 5220 5209 5194 5186 5176 5165 5155 5144 5133 5123 5115 5107 5100 5093 5084 5075 5067 5058 5049 5042 5036 5033 5031 5033 5034 5037 5037 5039 5042 5049
5356 5348 5338 5329 5316 5303 5292 5281 5268 5259 5250 5237 5229 5219 5211 5201 5190 5179 5169 5159 5150 5139 5130 5120 5113 5105 5098 5092 5084 5077 5070 5060 5050 5042 5035 5031 5029 5030 5031 5031 5033 5034 5037 5041
5347 5337 5326 5315 5306 5295 5283 5272 5261 5250 5242 5227 5219 5214 5205 5194 5183 5174 5164 5154 5145 5136 5127 5117 5109 5103 5097 5091 5086 5079 5072 5063 5054 5046 5040 5035 5031 5030 5031 5032 5034 5035 5038 5042